Theta_e
313 312 311 310 309 309 310 310 310 310 310 310 311 312 312 314 315 317 316 315 315 311 311 313 314 315 316 318 317 318 320 320 321 321 319 318 319 316 317 318 318 320 318 321 325
313 310 309 309 309 309 308 309 309 309 309 309 310 311 312 315 319 318 316 314 313 311 313 314 315 315 317 319 319 320 320 320 320 319 319 318 318 318 317 317 318 318 317 319 327
311 310 308 308 308 308 308 308 308 308 308 308 309 310 312 315 319 317 312 312 312 311 314 314 314 316 316 317 318 319 320 318 317 317 317 318 317 317 317 318 318 318 318 318 327
311 310 308 308 308 308 307 307 307 307 307 308 309 310 314 317 315 315 311 311 311 312 314 314 314 315 315 316 316 315 315 315 317 317 316 317 317 317 317 318 317 319 318 317 326
313 312 311 309 308 308 308 308 308 308 308 308 308 310 315 316 317 313 310 311 311 312 313 314 314 315 315 316 315 314 315 314 316 316 316 315 316 317 318 318 316 315 315 318 321
314 313 312 311 309 308 308 308 308 308 308 308 308 310 315 313 315 314 311 311 313 313 313 313 314 315 315 316 315 316 315 316 316 316 316 316 317 316 317 318 318 316 316 317 318
313 312 312 311 311 309 309 308 308 308 308 308 308 310 312 314 315 313 311 312 312 313 314 313 313 316 316 316 315 316 316 316 316 316 316 316 317 316 316 316 317 317 316 317 317
316 315 314 314 312 310 309 309 309 308 308 308 308 312 312 312 315 312 311 312 312 312 313 313 314 316 317 316 316 316 317 316 317 316 316 317 316 318 316 317 317 317 317 317 317
318 318 317 317 316 312 308 307 308 307 308 309 312 312 312 312 315 314 311 313 312 312 311 312 315 317 316 317 318 318 316 317 318 316 317 317 318 318 316 315 316 317 317 317 317
319 319 319 319 318 318 320 314 309 314 313 311 311 311 309 312 315 314 311 311 314 314 314 315 315 316 317 317 315 316 317 316 317 317 315 317 318 317 317 317 317 318 318 318 317
320 320 320 320 321 321 321 317 316 317 313 315 310 309 309 313 313 314 311 312 313 315 317 316 316 316 316 316 316 316 316 316 316 315 316 316 316 316 317 317 317 317 317 317 318
318 320 321 321 321 321 320 321 315 315 322 318 315 311 311 313 314 315 311 315 315 316 315 315 316 316 316 316 316 316 316 316 316 316 315 316 316 316 317 317 317 317 317 317 318
315 317 319 321 321 320 321 317 315 315 323 321 316 317 314 312 316 316 313 315 315 315 315 314 314 314 315 315 315 316 316 315 316 316 315 316 317 316 317 317 317 317 317 317 318
312 315 317 319 318 319 320 319 315 312 325 323 317 316 313 314 318 311 313 314 314 314 314 314 314 314 314 314 314 314 315 315 315 315 315 316 316 315 316 316 317 317 318 317 318
306 311 317 317 318 319 318 318 315 316 333 320 314 311 311 317 314 313 310 313 315 315 314 314 315 315 315 314 314 316 314 315 316 317 318 317 317 315 315 315 316 317 318 318 319
304 306 311 315 317 317 317 316 317 323 328 319 314 315 315 313 312 312 312 312 312 315 314 315 312 314 315 313 314 314 316 317 317 317 316 316 316 315 316 315 316 316 317 318 317
299 304 308 312 317 315 315 316 320 323 321 322 316 315 316 316 314 314 314 314 317 317 317 315 314 313 313 314 313 315 316 315 317 321 318 316 316 316 315 315 316 316 316 317 316
298 300 306 310 314 314 314 321 322 321 322 316 316 315 316 315 314 314 316 317 315 316 317 318 317 314 313 315 315 316 316 317 319 319 318 314 317 316 316 316 316 315 315 316 316
298 302 305 307 312 314 315 320 318 316 317 318 317 318 317 315 315 314 315 317 316 315 316 316 315 313 313 313 314 315 317 316 318 318 316 315 315 315 316 315 315 315 315 316 316
301 301 302 305 307 313 316 317 316 314 315 317 320 319 320 318 315 315 315 315 314 314 314 314 314 312 312 312 313 314 314 316 315 323 320 315 315 316 316 316 316 316 316 316 316
301 302 302 304 309 313 315 315 314 313 314 316 316 316 317 317 318 317 317 315 313 313 314 314 314 314 312 314 314 314 314 314 315 316 318 319 316 316 316 316 316 317 317 316 316
301 302 301 307 312 311 312 312 311 313 313 315 315 316 315 316 318 318 317 315 313 313 314 314 314 317 315 313 313 314 314 314 316 317 316 317 318 316 315 315 316 315 316 316 315
301 301 300 305 308 310 309 309 310 310 312 314 314 314 314 316 318 319 319 316 313 314 317 314 317 321 321 317 313 313 314 314 315 316 321 322 318 315 316 315 315 315 316 316 315
301 301 302 304 306 305 307 307 308 308 309 311 312 313 314 315 315 316 316 315 314 312 312 313 317 320 322 319 318 316 315 315 315 318 318 318 317 316 316 316 316 316 315 315 316
301 300 301 304 304 306 304 304 305 306 307 308 310 312 313 313 313 314 315 315 313 312 312 312 317 318 319 318 318 319 320 317 316 316 317 317 317 317 316 316 316 317 316 315 315
300 301 300 302 302 304 303 303 304 304 305 306 307 306 309 310 309 309 312 314 313 312 313 310 314 314 313 312 313 316 316 319 318 317 316 316 317 316 316 316 316 316 316 316 315
299 299 301 300 300 304 303 304 303 303 304 304 304 305 306 307 306 308 307 307 308 309 310 312 314 313 313 312 314 318 317 317 318 318 318 318 317 316 316 316 316 317 317 316 315
Wind_Speed
7 7 7 6 6 4 4 3 2 2 2 2 3 4 5 4 2 3 4 3 3 3 4 2 4 3 5 3 2 2 6 8 8 5 2 7 9 3 3 5 4 6 3 3 19
7 7 6 5 5 5 4 3 3 3 2 3 4 4 5 1 4 6 3 3 4 3 4 7 6 7 4 4 3 6 8 7 3 3 3 7 9 7 6 11 10 9 6 6 17
6 6 6 5 4 3 3 4 3 3 3 3 5 5 4 4 6 2 2 3 4 4 3 4 3 6 5 3 4 3 8 3 2 1 1 5 8 4 9 13 11 12 13 13 18
7 5 5 5 4 3 3 3 3 3 4 5 6 6 0 2 3 1 2 3 3 4 4 4 6 6 6 7 4 6 2 2 2 1 2 4 1 6 14 15 6 8 5 17 17
7 6 5 5 4 4 4 4 4 3 5 6 6 6 2 4 1 2 2 3 4 3 5 6 8 6 8 5 4 7 3 3 2 3 3 2 7 8 13 15 6 2 4 15 15
6 5 5 5 5 6 6 6 5 4 6 6 7 5 2 7 2 2 3 4 3 4 4 4 4 3 2 3 6 1 4 4 4 5 3 5 7 2 7 11 15 12 12 13 15
6 6 6 6 7 7 7 7 8 7 7 7 7 5 4 2 1 2 4 2 4 2 3 1 2 5 4 4 3 2 5 6 9 6 3 4 10 16 14 4 9 16 14 15 15
5 4 3 5 6 8 9 8 8 8 7 7 6 2 1 1 1 2 3 3 3 5 5 3 2 4 1 4 4 4 4 8 7 7 3 5 12 5 1 10 14 16 14 15 17
4 3 2 2 4 5 7 8 7 7 6 5 3 3 2 3 2 2 1 2 4 4 5 4 1 1 4 6 5 6 7 9 6 6 2 11 9 1 2 6 13 13 15 16 16
5 4 3 1 1 2 5 5 4 4 4 2 3 3 3 2 3 3 2 5 1 6 5 3 3 6 6 8 8 9 8 7 9 5 6 10 17 17 13 11 12 13 14 14 16
8 8 6 3 3 3 5 3 3 3 4 3 2 3 3 3 4 3 4 5 4 5 8 3 8 9 14 13 11 4 5 8 3 4 4 11 19 18 17 18 18 19 19 19 20
5 3 9 6 4 5 5 2 3 2 3 4 3 3 2 3 3 5 6 9 6 10 3 5 11 13 1 1 6 8 12 14 13 2 4 14 21 18 18 22 20 20 21 20 20
5 3 2 7 5 5 3 2 2 1 4 3 2 3 2 7 4 10 11 6 6 9 11 14 2 3 6 7 11 13 14 12 13 2 13 13 19 17 16 16 14 20 21 20 21
4 4 6 4 1 1 2 4 3 0 4 7 6 3 4 5 5 2 8 3 5 12 11 10 8 5 9 12 12 15 12 13 11 7 7 1 10 17 17 18 16 16 17 19 18
4 2 8 10 6 2 2 7 5 1 5 6 4 4 2 7 4 2 2 3 11 9 6 4 9 12 13 10 10 4 4 3 4 7 9 13 8 9 13 14 15 17 17 15 14
5 3 2 6 5 8 5 11 2 3 8 2 4 6 7 5 2 3 5 1 3 8 8 7 1 5 4 5 6 11 6 4 1 3 9 13 13 15 15 15 9 7 7 5 5
9 5 2 4 3 10 13 3 3 5 1 7 4 6 10 8 7 6 7 10 11 8 16 13 11 4 4 6 4 10 7 4 5 6 10 5 5 19 14 14 9 11 12 13 2
7 6 5 7 6 11 3 4 5 7 14 2 4 7 6 8 5 8 7 12 16 14 8 14 11 16 14 14 9 15 14 7 8 8 12 4 10 9 3 7 9 9 13 13 9
5 4 3 6 8 10 2 5 8 9 5 8 8 6 7 5 3 9 12 13 11 19 10 10 11 4 4 10 16 8 11 14 10 1 5 10 21 22 15 10 13 17 16 15 12
1 2 4 6 9 5 4 12 11 3 2 7 13 10 12 11 10 10 11 3 10 12 20 5 10 2 3 3 7 8 3 7 7 6 11 16 20 15 10 13 12 12 9 13 7
1 3 2 8 8 3 9 10 13 5 6 5 9 11 10 12 10 7 6 4 5 2 15 10 8 3 5 11 14 8 10 8 5 9 7 12 12 13 15 6 5 4 5 9 8
2 3 1 12 6 5 12 13 7 8 10 8 7 12 14 10 10 13 11 6 4 6 6 12 5 10 12 3 7 17 21 20 9 11 7 10 17 15 4 4 4 7 9 5 5
2 3 1 6 10 12 15 18 17 11 15 9 11 10 11 14 7 11 6 3 2 4 2 3 4 3 5 9 2 7 16 14 15 8 10 12 13 17 14 10 8 9 9 5 4
3 4 3 3 10 12 18 19 19 11 15 16 7 13 14 17 14 6 3 4 5 4 3 2 6 10 11 8 4 5 13 19 18 13 22 21 29 31 25 20 19 12 8 9 7
3 5 6 7 12 15 12 8 19 14 15 14 12 19 15 12 14 18 14 11 7 2 3 3 5 10 20 22 22 21 19 15 21 24 22 26 24 29 29 18 20 18 17 18 20
4 4 3 7 17 18 14 16 18 18 11 14 18 15 18 19 19 13 12 8 6 4 4 6 4 3 14 19 17 15 17 21 21 20 22 26 29 27 27 22 19 20 19 19 19
9 3 3 9 8 15 18 23 12 16 14 17 14 14 14 13 10 6 3 2 2 2 2 4 2 4 19 18 14 11 19 23 26 26 25 23 25 24 25 25 22 22 17 17 18
Wind_Direction
172 169 171 177 183 186 205 218 224 260 278 310 314 328 326 317 181 180 204 173 162 179 163 175 201 184 186 156 254 272 236 240 253 250 271 139 192 172 359 252 213 191 287 77 154
176 176 182 187 192 192 202 217 232 246 264 298 310 323 319 297 213 223 228 189 180 171 175 196 189 189 176 177 194 237 231 249 34 314 265 171 208 179 224 219 227 212 178 152 160
180 182 188 189 199 221 231 233 236 264 285 310 318 325 322 158 230 150 206 200 194 171 224 212 202 218 200 202 189 187 246 72 156 277 267 184 205 206 232 250 239 226 191 178 179
181 188 196 199 206 224 238 280 293 300 316 329 323 326 239 158 241 129 170 174 183 167 183 185 203 211 215 196 194 233 242 259 103 162 219 200 212 216 230 240 2 257 251 179 190
196 194 202 212 221 235 246 259 281 310 324 323 328 333 162 212 164 160 137 150 152 169 211 212 216 224 215 188 182 236 175 183 151 180 231 315 236 242 252 246 205 263 220 192 203
205 216 228 221 228 245 262 269 277 292 312 325 335 338 249 229 145 149 155 137 151 188 186 208 265 244 194 196 223 84 204 185 196 205 220 248 250 257 234 252 235 218 221 218 214
221 238 242 247 249 248 260 273 282 294 302 317 333 352 257 22 98 164 153 172 155 159 167 114 154 245 163 162 138 171 225 214 213 206 227 245 246 241 241 192 246 234 233 232 223
190 222 245 272 273 267 260 263 275 286 297 310 319 332 346 108 107 85 123 99 97 105 110 104 135 117 338 130 159 220 245 235 128 181 172 222 263 241 319 213 243 243 239 233 231
171 196 202 266 308 298 288 276 272 282 287 304 317 286 172 110 167 185 133 163 112 90 94 107 97 118 166 214 200 202 259 216 204 202 201 214 279 222 106 241 255 252 249 243 238
212 208 201 247 323 10 330 284 273 284 280 281 257 252 160 150 150 166 155 130 147 141 130 168 195 210 222 213 223 232 228 228 255 141 226 243 256 270 264 239 258 262 257 249 245
222 227 217 221 272 329 359 301 232 210 217 288 25 6 117 125 128 175 157 138 167 204 204 187 216 215 224 227 270 284 290 266 259 123 285 263 271 269 273 271 265 259 256 257 253
135 202 230 216 265 298 321 263 49 30 264 219 260 274 203 200 160 183 168 186 196 207 176 191 226 235 185 147 224 245 255 259 272 108 249 281 279 277 271 264 258 260 260 257 256
173 112 185 215 232 287 318 81 126 297 260 223 217 234 179 187 237 185 184 175 198 201 209 234 199 288 187 203 216 233 245 255 262 317 241 284 275 268 251 248 264 260 261 262 258
62 153 134 150 149 219 253 200 164 190 270 216 198 173 157 174 234 31 195 216 204 216 211 238 224 167 210 237 227 255 245 253 269 281 272 291 286 287 287 273 254 257 250 253 252
23 71 171 162 130 233 243 175 144 265 249 98 150 119 134 201 105 101 154 219 221 191 190 193 194 204 219 219 204 244 36 252 269 265 298 239 269 266 252 262 261 261 264 266 268
326 355 218 172 162 213 194 161 117 94 234 204 135 176 158 182 103 96 179 189 335 234 244 271 0 217 237 74 211 132 117 116 188 277 264 250 225 269 251 267 266 264 271 257 279
308 273 244 176 155 163 162 119 87 187 148 192 183 192 197 172 177 187 176 192 199 199 228 216 220 165 169 120 137 197 184 231 242 201 254 67 279 247 296 288 268 277 293 294 290
324 263 249 209 173 162 156 192 211 182 209 118 137 165 190 161 202 192 200 220 222 239 283 214 222 189 191 217 179 197 202 208 233 239 265 106 238 264 256 305 312 269 271 286 272
333 308 269 233 200 167 152 203 220 216 209 151 151 192 184 192 226 202 224 235 219 207 217 223 238 191 213 217 209 181 221 243 270 319 282 251 265 272 255 229 265 276 284 284 288
347 298 245 218 192 155 206 229 229 265 73 215 219 203 215 183 187 202 193 208 220 226 226 258 260 170 148 214 252 235 224 199 215 224 235 256 255 259 284 281 271 277 282 298 315
283 237 189 179 165 215 221 230 233 229 222 219 235 249 231 242 220 201 243 164 202 216 207 233 227 140 169 208 199 190 221 223 245 228 245 252 258 272 276 336 353 356 319 314 315
199 225 128 167 184 209 224 221 249 213 229 242 266 276 242 217 240 233 237 226 95 152 184 216 273 246 220 186 245 240 226 218 221 222 241 269 268 253 279 304 310 286 300 287 305
205 268 52 218 201 211 222 228 228 231 225 219 228 233 239 238 242 226 251 314 131 226 328 163 218 245 251 224 211 247 239 247 246 252 251 234 254 268 267 281 291 283 287 331 319
182 206 164 232 258 242 220 223 222 222 238 232 239 241 238 239 239 259 269 54 28 50 28 83 216 227 239 248 56 198 239 241 238 237 242 242 256 272 265 271 277 261 242 253 261
223 224 194 196 223 222 238 226 222 222 218 214 232 232 224 230 233 237 234 263 265 144 67 29 237 231 257 273 282 283 279 269 242 242 240 253 248 261 270 275 279 289 293 286 289
174 207 202 276 216 206 219 229 230 220 197 215 231 230 227 236 236 244 234 179 229 189 200 185 236 329 295 278 280 280 274 266 256 260 259 260 263 257 279 278 277 284 279 282 279
208 203 266 225 218 211 213 225 231 222 232 245 237 237 237 238 259 294 16 328 268 264 247 289 242 237 264 270 267 249 242 251 248 246 251 254 259 273 269 276 282 285 287 279 278